Weather History for West Plains, MO

Change the Weather History Date:

Saturday, December 29, 2012

  Actual Average Record
Temperature  
Mean Temperature 24 °F 34 °F  
Max Temperature 31 °F 44 °F 71 °F (1984)
Min Temperature 17 °F 24 °F -3 °F (1983)
Degree Days  
Heating Degree Days 41 31  
Month to date heating degree days 657 833  
Since 1 July heating degree days 1601 1685  
Cooling Degree Days 0 0  
Month to date cooling degree days 0 0  
Year to date cooling degree days 1739 1354  
Moisture  
Dew Point 18 °F    
Average Humidity 73    
Maximum Humidity 88    
Minimum Humidity 58    
Precipitation  
Precipitation 0.00 in 0.07 in 1.44 in (1972)
Month to date precipitation 1.90 3.51  
Year to date precipitation 31.82 46.09  
Sea Level Pressure  
Sea Level Pressure 30.21 in    
Wind  
Wind Speed 9 mph (WNW)    
Max Wind Speed 20 mph    
Max Gust Speed 24 mph    
Visibility 8 miles    
Events      
T = Trace of Precipitation, MM = Missing Value Source: NWS Daily Summary

Daily Weather History Graph

Daily Weather History Graph

Search for Another Location

Airport:

Trip Planner

Search our weather history database for the weather conditions in past years. The results will help you decide how hot, cold, wet, or windy it might be!

Date:

Astronomy

Dec. 29, 2012 Rise Set
Actual Time 7:20 AM CST 4:59 PM CST
Civil Twilight 6:51 AM CST 5:28 PM CST
Nautical Twilight 6:18 AM CST 6:01 PM CST
Astronomical Twilight 5:47 AM CST 6:32 PM CST
Moon 6:30 PM CST (12/29) 7:56 AM CST (12/29)
Length of Visible Light 10h 37m
Length of Day
9h 39m
Full, 98% of the Moon is Illuminated
Dec 29
Full
Jan 4
Last Quarter
Jan 11
New
Jan 18
First Quarter
Jan 26
Full

Hourly Weather History & Observations

Time (CST) Temp. Windchill Dew Point Humidity Pressure Visibility Wind Dir Wind Speed Gust Speed Precip Events Conditions
12:53 AM 28.9 °F 21.9 °F 24.1 °F 82% 29.99 in 6.0 mi WNW 6.9 mph - N/A   Haze
1:53 AM 27.0 °F 18.0 °F 21.9 °F 81% 30.01 in 7.0 mi WNW 9.2 mph 17.3 mph N/A   Overcast
2:02 AM 26.6 °F 15.7 °F 21.2 °F 80% 29.98 in 8.0 mi WNW 12.7 mph 18.4 mph N/A   Overcast
2:53 AM 27.0 °F 19.5 °F 21.0 °F 78% 30.04 in 8.0 mi WNW 6.9 mph - N/A   Overcast
3:18 AM 26.6 °F 18.2 °F 21.2 °F 80% 30.01 in 8.0 mi WNW 8.1 mph - N/A   Overcast
3:53 AM 27.0 °F 19.5 °F 21.0 °F 78% 30.04 in 7.0 mi NW 6.9 mph 16.1 mph N/A   Overcast
4:53 AM 25.0 °F 14.2 °F 21.0 °F 85% 30.07 in 5.0 mi WNW 11.5 mph - N/A   Overcast
5:53 AM 25.0 °F 13.1 °F 19.0 °F 78% 30.09 in 5.0 mi NW 13.8 mph - N/A   Haze
6:01 AM 24.8 °F 16.1 °F 19.4 °F 80% 30.07 in 5.0 mi WNW 8.1 mph 19.6 mph N/A   Haze
6:53 AM 21.9 °F 11.7 °F 17.1 °F 82% 30.14 in 5.0 mi West 9.2 mph - N/A   Haze
7:53 AM 21.9 °F 11.0 °F 17.1 °F 82% 30.18 in 4.0 mi WNW 10.4 mph - 0.00 in   Haze
8:53 AM 24.1 °F 13.1 °F 18.0 °F 77% 30.20 in 5.0 mi WNW 11.5 mph 20.7 mph N/A   Haze
9:53 AM 25.0 °F 14.2 °F 18.0 °F 75% 30.24 in 5.0 mi WNW 11.5 mph - N/A   Haze
10:53 AM 25.0 °F 14.8 °F 19.0 °F 78% 30.26 in 5.0 mi WNW 10.4 mph - N/A   Haze
11:53 AM 27.0 °F 16.7 °F 19.9 °F 75% 30.25 in 6.0 mi WNW 11.5 mph - N/A   Haze
12:53 PM 27.0 °F 18.7 °F 18.0 °F 69% 30.24 in 7.0 mi NW 8.1 mph - 0.02 in   Mostly Cloudy
1:53 PM 28.9 °F 19.2 °F 19.0 °F 67% 30.25 in 8.0 mi NW 11.5 mph - 0.07 in   Mostly Cloudy
2:00 PM 28.4 °F 17.5 °F 19.4 °F 69% 30.21 in 8.0 mi WNW 13.8 mph 18.4 mph 0.01 in   Scattered Clouds
2:53 PM 30.0 °F 19.5 °F 19.0 °F 64% 30.26 in 9.0 mi WNW 13.8 mph 20.7 mph 0.04 in   Clear
3:53 PM 30.0 °F 21.1 °F 18.0 °F 61% 30.28 in 10.0 mi NW 10.4 mph - 0.01 in   Clear
5:53 PM 24.1 °F 18.2 °F 16.0 °F 71% 30.33 in 10.0 mi West 4.6 mph - N/A   Clear
6:53 PM 24.1 °F 17.0 °F 16.0 °F 71% 30.37 in 10.0 mi West 5.8 mph - N/A   Clear
7:48 PM 21.2 °F 6.0 °F 15.8 °F 80% 30.33 in 10.0 mi SW 19.6 mph 21.9 mph N/A   Clear
7:53 PM 21.9 °F 14.5 °F 15.1 °F 75% 30.38 in 10.0 mi West 5.8 mph 24.2 mph N/A   Clear
8:53 PM 21.0 °F - 15.1 °F 78% 30.38 in 10.0 mi North - - N/A   Clear
9:53 PM 21.0 °F - 14.0 °F 74% 30.38 in 10.0 mi Calm Calm - N/A   Clear
10:53 PM 17.1 °F 11.7 °F 12.9 °F 84% 30.40 in 10.0 mi WSW 3.5 mph - N/A   Clear
11:53 PM 21.0 °F 11.4 °F 14.0 °F 74% 30.41 in 10.0 mi WSW 8.1 mph - N/A   Clear